TimeEST,TemperatureF,Dew PointF,Humidity,Sea Level PressureIn,VisibilityMPH,Wind Direction,Wind SpeedMPH,Gust SpeedMPH,PrecipitationIn,Events,Conditions,WindDirDegrees,DateUTC
12:51 AM,19.0,17.1,92,30.29,9.0,Calm,Calm,-,N/A,,Clear,0,2012-12-07 05:51:00
1:51 AM,19.0,16.0,88,30.28,10.0,Calm,Calm,-,N/A,,Clear,0,2012-12-07 06:51:00
2:51 AM,19.0,17.1,92,30.28,10.0,Calm,Calm,-,N/A,,Clear,0,2012-12-07 07:51:00
3:51 AM,19.0,16.0,88,30.27,10.0,Calm,Calm,-,N/A,,Clear,0,2012-12-07 08:51:00
4:51 AM,19.9,18.0,92,30.25,9.0,Calm,Calm,-,N/A,,Clear,0,2012-12-07 09:51:00
5:51 AM,21.2,19.4,93,30.23,10.0,Calm,Calm,-,N/A,,Clear,0,2012-12-07 10:51:00
6:51 AM,19.9,18.0,92,30.24,9.0,Calm,Calm,-,N/A,,Clear,0,2012-12-07 11:51:00
7:51 AM,21.0,19.0,92,30.23,8.0,Calm,Calm,-,N/A,,Clear,0,2012-12-07 12:51:00
8:51 AM,24.1,21.0,88,30.23,8.0,Calm,Calm,-,N/A,,Clear,0,2012-12-07 13:51:00
9:51 AM,28.0,23.0,81,30.23,10.0,South,5.8,-,N/A,,Clear,180,2012-12-07 14:51:00
10:51 AM,32.0,25.0,75,30.19,10.0,South,6.9,-,N/A,,Clear,170,2012-12-07 15:51:00
11:51 AM,36.0,26.1,67,30.16,10.0,SSE,5.8,-,N/A,,Partly Cloudy,150,2012-12-07 16:51:00
12:51 PM,36.0,26.1,67,30.13,10.0,SE,4.6,-,N/A,,Overcast,140,2012-12-07 17:51:00
1:51 PM,37.0,27.0,67,30.12,10.0,SE,4.6,-,N/A,,Overcast,140,2012-12-07 18:51:00
2:51 PM,37.0,28.0,70,30.10,10.0,SSE,3.5,-,N/A,,Overcast,160,2012-12-07 19:51:00
3:51 PM,36.0,30.9,82,30.10,8.0,Calm,Calm,-,0.01,Rain,Light Rain,0,2012-12-07 20:51:00
4:32 PM,35.6,32.0,87,30.07,7.0,SSE,4.6,-,0.01,Rain,Light Rain,150,2012-12-07 21:32:00
4:51 PM,35.1,33.1,92,30.09,6.0,SSE,5.8,-,0.02,Rain,Light Rain,160,2012-12-07 21:51:00
5:51 PM,35.1,34.0,96,30.09,5.0,Calm,Calm,-,0.03,,Overcast,0,2012-12-07 22:51:00
6:19 PM,35.6,33.8,93,30.07,2.0,Calm,Calm,-,0.01,Rain,Light Rain,0,2012-12-07 23:19:00
6:51 PM,34.0,34.0,100,30.09,1.5,Calm,Calm,-,0.02,Rain,Light Rain,0,2012-12-07 23:51:00
6:58 PM,33.8,33.8,100,30.07,1.0,Calm,Calm,-,0.01,Rain,Light Rain,0,2012-12-07 23:58:00
7:21 PM,33.8,33.8,100,30.06,1.8,Calm,Calm,-,0.01,Rain,Light Rain,0,2012-12-08 00:21:00
7:28 PM,33.8,33.8,100,30.06,2.0,Calm,Calm,-,0.01,Rain,Light Rain,0,2012-12-08 00:28:00
7:35 PM,33.8,33.8,100,30.06,1.2,Calm,Calm,-,0.01,,Overcast,0,2012-12-08 00:35:00
7:49 PM,33.8,33.8,100,30.06,0.8,Calm,Calm,-,0.01,,Overcast,0,2012-12-08 00:49:00
7:51 PM,33.8,33.8,100,30.06,1.0,Calm,Calm,-,N/A,,Overcast,0,2012-12-08 00:51:00
8:04 PM,33.8,33.8,100,30.06,1.5,Calm,Calm,-,N/A,,Overcast,0,2012-12-08 01:04:00
8:31 PM,33.8,33.8,100,30.06,1.2,Calm,Calm,-,N/A,,Overcast,0,2012-12-08 01:31:00
8:51 PM,34.0,34.0,100,30.06,1.8,Calm,Calm,-,N/A,,Overcast,0,2012-12-08 01:51:00
9:01 PM,33.8,33.8,100,30.05,2.0,NW,3.5,-,N/A,,Overcast,320,2012-12-08 02:01:00
9:10 PM,33.8,33.8,100,30.05,2.5,Calm,Calm,-,N/A,,Overcast,0,2012-12-08 02:10:00
9:35 PM,33.8,33.8,100,30.04,1.8,Calm,Calm,-,N/A,,Overcast,0,2012-12-08 02:35:00
9:48 PM,33.8,33.8,100,30.04,1.2,Calm,Calm,-,N/A,,Overcast,0,2012-12-08 02:48:00
9:51 PM,33.1,33.1,100,30.06,1.2,Calm,Calm,-,N/A,,Overcast,0,2012-12-08 02:51:00
10:10 PM,33.8,33.8,100,30.04,1.5,NW,3.5,-,N/A,,Overcast,310,2012-12-08 03:10:00
10:18 PM,33.8,33.8,100,30.04,1.5,Calm,Calm,-,N/A,,Overcast,0,2012-12-08 03:18:00
10:25 PM,33.8,33.8,100,30.04,1.2,NW,3.5,-,N/A,,Overcast,320,2012-12-08 03:25:00
10:51 PM,33.1,33.1,100,30.05,1.0,Calm,Calm,-,N/A,,Overcast,0,2012-12-08 03:51:00
11:51 PM,33.1,33.1,100,30.05,1.2,Calm,Calm,-,N/A,,Overcast,0,2012-12-08 04:51:00